START_TIME,STEP,MOV.,M34,t_acc.,L5,t_acc.,L18,t_acc.,L14,t_acc.
1979-08-01 18:00:23.570 ,0,1,0.,12.0,0.,12.0,0.,12.0,0.,12.0
1979-08-01 18:00:35.570 ,0,1,0.,12.0,0.,12.0,0.,12.0,0.,12.0
1979-08-01 18:00:47.570 ,3,1,0.,12.0,0.,12.0,0.,12.0,0.,12.0
1979-08-01 18:00:59.570 ,3,1,0.,12.0,0.,12.0,0.,12.0,0.,12.0
1979-08-01 18:01:11.570 ,7,1,0.,12.0,0.,12.0,0.,12.0,0.,12.0
1979-08-01 18:01:23.570 ,7,1,0.,12.0,0.,12.0,0.,12.0,0.,12.0
1979-08-01 18:01:35.570 ,4,1,0.,12.0,0.,12.0,0.,12.0,0.,12.0
1979-08-01 18:01:47.570 ,4,1,0.,12.0,0.,12.0,0.,12.0,0.,12.0
1979-08-01 18:01:59.570 ,0,1,0.,12.0,0.,12.0,0.,12.0,0.,12.0
1979-08-01 18:02:11.570 ,0,1,0.,12.0,0.,12.0,0.,12.0,0.,12.0
1979-08-01 18:03:11.570 ,0,0,0.,12.0,0.,12.0,0.,12.0,0.,12.0
1979-08-01 18:03:23.570 ,0,0,0.,12.0,0.,12.0,0.,12.0,0.,12.0
1979-08-01 18:03:35.570 ,0,1,0.,12.0,0.,12.0,0.,12.0,0.,12.0
1979-08-01 18:03:47.570 ,0,1,0.,12.0,0.,12.0,0.,12.0,0.,12.0
1979-08-01 18:03:59.570 ,3,1,0.,12.0,0.,12.0,0.,12.0,0.,12.0
1979-08-01 18:04:11.570 ,3,1,0.,12.0,0.,12.0,0.,12.0,0.,12.0
1979-08-01 18:04:23.570 ,7,1,0.,12.0,0.,12.0,0.,12.0,0.,12.0
1979-08-01 18:04:35.570 ,7,1,0.,12.0,0.,12.0,0.,12.0,0.,12.0
1979-08-01 18:04:47.570 ,4,1,0.,12.0,0.,12.0,0.,12.0,0.,12.0
1979-08-01 18:04:59.570 ,4,1,0.,12.0,0.,12.0,0.,12.0,0.,12.0
1979-08-01 18:05:11.570 ,0,1,0.,12.0,0.,12.0,0.,12.0,0.,12.0
1979-08-01 18:05:23.570 ,0,1,0.,12.0,0.,12.0,0.,12.0,0.,12.0
1979-08-01 18:05:35.570 ,0,0,0.,12.0,0.,12.0,0.,12.0,0.,12.0
1979-08-01 18:05:47.570 ,0,0,0.,12.0,0.,12.0,0.,12.0,0.,12.0
1979-08-01 18:05:59.570 ,0,0,0.,12.0,0.,12.0,0.,12.0,1.,12.0
1979-08-01 18:06:11.570 ,0,0,0.,12.0,0.,12.0,0.,12.0,0.,12.0
1979-08-01 18:07:11.570 ,0,0,0.,12.0,0.,12.0,0.,12.0,0.,12.0
1979-08-01 18:07:23.570 ,0,0,0.,12.0,0.,12.0,0.,12.0,0.,12.0
1979-08-01 18:07:35.570 ,0,0,0.,12.0,0.,12.0,0.,12.0,0.,12.0
1979-08-01 18:07:47.570 ,0,0,0.,12.0,0.,12.0,0.,12.0,0.,12.0
1979-08-01 18:07:59.570 ,3,1,0.,12.0,0.,12.0,0.,12.0,0.,12.0
1979-08-01 18:08:11.570 ,3,1,0.,12.0,0.,12.0,0.,12.0,0.,12.0
1979-08-01 18:08:23.570 ,3,0,0.,12.0,0.,12.0,0.,12.0,0.,12.0
1979-08-01 18:08:35.570 ,3,0,0.,12.0,0.,12.0,0.,12.0,0.,12.0
1979-08-01 18:08:47.570 ,2,1,0.,12.0,0.,12.0,0.,12.0,0.,12.0
1979-08-01 18:08:59.570 ,2,1,0.,12.0,0.,12.0,0.,12.0,0.,12.0
1979-08-01 18:09:11.570 ,2,0,0.,12.0,0.,12.0,0.,12.0,0.,12.0
1979-08-01 18:09:23.570 ,2,0,0.,12.0,0.,12.0,0.,12.0,0.,12.0
1979-08-01 18:09:35.570 ,1,1,0.,12.0,0.,12.0,0.,12.0,0.,12.0
1979-08-01 18:09:47.570 ,1,1,0.,12.0,0.,12.0,0.,12.0,0.,12.0
1979-08-01 18:09:59.570 ,1,0,0.,12.0,0.,12.0,0.,12.0,0.,12.0
1979-08-01 18:10:11.570 ,1,0,0.,12.0,0.,12.0,0.,12.0,0.,12.0
1979-08-01 18:10:23.570 ,0,1,0.,12.0,0.,12.0,0.,12.0,0.,12.0
1979-08-01 18:10:35.570 ,0,1,0.,12.0,0.,12.0,0.,12.0,0.,12.0
1979-08-01 18:10:47.570 ,0,0,0.,12.0,0.,12.0,0.,12.0,0.,12.0
1979-08-01 18:10:59.570 ,0,0,0.,12.0,0.,12.0,0.,12.0,0.,12.0
1979-08-01 18:11:59.570 ,0,0,0.,12.0,0.,12.0,0.,12.0,0.,12.0
1979-08-01 18:12:11.570 ,0,0,0.,12.0,0.,12.0,0.,12.0,0.,12.0
1979-08-01 18:12:23.570 ,0,0,0.,12.0,0.,12.0,0.,12.0,0.,12.0
1979-08-01 18:12:35.570 ,0,0,0.,12.0,0.,12.0,0.,12.0,0.,12.0
1979-08-01 18:12:47.570 ,2,1,0.,12.0,0.,12.0,0.,12.0,0.,12.0
1979-08-01 18:12:59.570 ,2,1,0.,12.0,0.,12.0,0.,12.0,0.,12.0
1979-08-01 18:13:11.570 ,2,0,0.,12.0,0.,12.0,0.,12.0,0.,12.0
1979-08-01 18:13:23.570 ,2,0,0.,12.0,0.,12.0,0.,12.0,0.,12.0
1979-08-01 18:13:35.570 ,3,1,0.,12.0,0.,12.0,0.,12.0,0.,12.0
1979-08-01 18:13:47.570 ,3,1,0.,12.0,0.,12.0,0.,12.0,0.,12.0
1979-08-01 18:13:59.570 ,3,0,0.,12.0,0.,12.0,0.,12.0,0.,12.0
1979-08-01 18:14:11.570 ,3,0,0.,12.0,0.,12.0,0.,12.0,0.,12.0
1979-08-01 18:14:23.570 ,4,1,0.,12.0,0.,12.0,0.,12.0,0.,12.0
1979-08-01 18:14:35.570 ,4,1,0.,12.0,0.,12.0,0.,12.0,0.,12.0
1979-08-01 18:14:47.570 ,4,0,0.,12.0,0.,12.0,0.,12.0,0.,12.0
1979-08-01 18:14:59.570 ,4,0,0.,12.0,0.,12.0,0.,12.0,0.,12.0
1979-08-01 18:15:11.570 ,5,1,0.,12.0,0.,12.0,0.,12.0,0.,12.0
1979-08-01 18:15:23.570 ,5,1,0.,12.0,0.,12.0,0.,12.0,0.,12.0
1979-08-01 18:15:35.570 ,5,0,0.,12.0,0.,12.0,0.,12.0,0.,12.0
1979-08-01 18:15:47.570 ,5,0,0.,12.0,0.,12.0,0.,12.0,0.,12.0
1979-08-01 18:15:59.570 ,6,1,0.,12.0,0.,12.0,0.,12.0,0.,12.0
1979-08-01 18:16:11.570 ,6,1,0.,12.0,0.,12.0,0.,12.0,0.,12.0
1979-08-01 18:16:23.570 ,6,0,0.,12.0,0.,12.0,0.,12.0,0.,12.0
1979-08-01 18:16:35.570 ,6,0,0.,12.0,0.,12.0,0.,12.0,0.,12.0
1979-08-01 18:16:47.570 ,7,1,0.,12.0,0.,12.0,0.,12.0,0.,12.0
1979-08-01 18:16:59.570 ,7,1,0.,12.0,0.,12.0,0.,12.0,0.,12.0
1979-08-01 18:17:11.570 ,7,0,0.,12.0,0.,12.0,0.,12.0,0.,12.0
1979-08-01 18:17:23.570 ,7,0,0.,12.0,0.,12.0,0.,12.0,0.,12.0
1979-08-01 18:18:23.570 ,0,0,0.,12.0,0.,12.0,0.,12.0,0.,12.0
1979-08-01 18:18:35.570 ,0,0,0.,12.0,0.,12.0,0.,12.0,0.,12.0
1979-08-01 18:18:47.570 ,0,0,0.,12.0,0.,12.0,0.,12.0,0.,12.0
1979-08-01 18:18:59.570 ,0,0,0.,12.0,0.,12.0,0.,12.0,0.,12.0
1979-08-01 18:19:11.570 ,5,1,0.,12.0,0.,12.0,0.,12.0,0.,12.0
1979-08-01 18:19:23.570 ,5,1,0.,12.0,0.,12.0,0.,12.0,0.,12.0
1979-08-01 18:19:35.570 ,5,0,0.,12.0,0.,12.0,0.,12.0,0.,12.0
1979-08-01 18:19:47.570 ,5,0,0.,12.0,0.,12.0,0.,12.0,0.,12.0
1979-08-01 18:19:59.570 ,4,1,0.,12.0,0.,12.0,0.,12.0,0.,12.0
1979-08-01 18:20:11.570 ,4,1,0.,12.0,0.,12.0,0.,12.0,0.,12.0
1979-08-01 18:20:23.570 ,4,0,0.,12.0,0.,12.0,0.,12.0,0.,12.0
1979-08-01 18:20:35.570 ,4,0,0.,12.0,0.,12.0,0.,12.0,0.,12.0
1979-08-01 18:20:47.570 ,3,1,0.,12.0,0.,12.0,0.,12.0,0.,12.0
1979-08-01 18:20:59.570 ,3,1,0.,12.0,0.,12.0,0.,12.0,0.,12.0
1979-08-01 18:21:11.570 ,3,0,0.,12.0,0.,12.0,0.,12.0,0.,12.0
1979-08-01 18:21:23.570 ,3,0,0.,12.0,0.,12.0,0.,12.0,0.,12.0
1979-08-01 18:21:35.570 ,2,1,0.,12.0,0.,12.0,0.,12.0,0.,12.0
1979-08-01 18:21:47.570 ,2,1,0.,12.0,0.,12.0,0.,12.0,0.,12.0
1979-08-01 18:21:59.570 ,2,0,0.,12.0,0.,12.0,0.,12.0,0.,12.0
1979-08-01 18:22:11.570 ,2,0,0.,12.0,0.,12.0,0.,12.0,0.,12.0
1979-08-01 18:22:23.570 ,1,1,0.,12.0,0.,12.0,0.,12.0,0.,12.0
1979-08-01 18:22:35.570 ,1,1,0.,12.0,0.,12.0,0.,12.0,0.,12.0
1979-08-01 18:22:47.570 ,1,0,0.,12.0,0.,12.0,0.,12.0,0.,12.0
1979-08-01 18:22:59.570 ,1,0,0.,12.0,0.,12.0,0.,12.0,0.,12.0
1979-08-01 18:23:11.570 ,0,1,0.,12.0,0.,12.0,0.,12.0,0.,12.0
1979-08-01 18:23:23.570 ,0,1,0.,12.0,0.,12.0,0.,12.0,0.,12.0
1979-08-01 18:23:35.570 ,0,0,0.,12.0,0.,12.0,0.,12.0,0.,12.0
1979-08-01 18:23:47.570 ,0,0,0.,12.0,0.,12.0,0.,12.0,0.,12.0
1979-08-01 18:24:47.570 ,0,0,0.,12.0,0.,12.0,0.,12.0,0.,12.0
1979-08-01 18:24:59.570 ,0,0,0.,12.0,0.,12.0,0.,12.0,0.,12.0
1979-08-01 18:25:11.570 ,0,0,0.,12.0,0.,12.0,0.,12.0,0.,12.0
1979-08-01 18:25:23.570 ,0,0,0.,12.0,0.,12.0,0.,12.0,0.,12.0
1979-08-01 18:25:35.570 ,2,1,0.,12.0,0.,12.0,0.,12.0,0.,12.0
1979-08-01 18:25:47.570 ,2,1,0.,12.0,0.,12.0,0.,12.0,0.,12.0
1979-08-01 18:25:59.570 ,2,0,0.,12.0,0.,12.0,0.,12.0,0.,12.0
1979-08-01 18:26:11.570 ,2,0,0.,12.0,0.,12.0,0.,12.0,0.,12.0
1979-08-01 18:26:23.570 ,3,1,0.,12.0,0.,12.0,0.,12.0,0.,12.0
1979-08-01 18:26:35.570 ,3,1,0.,12.0,0.,12.0,0.,12.0,0.,12.0
1979-08-01 18:26:47.570 ,3,0,0.,12.0,0.,12.0,0.,12.0,0.,12.0
1979-08-01 18:26:59.570 ,3,0,0.,12.0,0.,12.0,0.,12.0,0.,12.0
1979-08-01 18:27:11.570 ,4,1,0.,12.0,0.,12.0,0.,12.0,0.,12.0
1979-08-01 18:27:23.570 ,4,1,0.,12.0,0.,12.0,0.,12.0,0.,12.0
1979-08-01 18:27:35.570 ,4,0,0.,12.0,0.,12.0,0.,12.0,0.,12.0
1979-08-01 18:27:47.570 ,4,0,0.,12.0,0.,12.0,0.,12.0,0.,12.0
1979-08-01 18:27:59.570 ,5,1,0.,12.0,0.,12.0,0.,12.0,0.,12.0
1979-08-01 18:28:11.570 ,5,1,0.,12.0,0.,12.0,0.,12.0,0.,12.0
1979-08-01 18:28:23.570 ,5,0,0.,12.0,0.,12.0,0.,12.0,0.,12.0
1979-08-01 18:28:35.570 ,5,0,0.,12.0,0.,12.0,0.,12.0,0.,12.0
1979-08-01 18:28:47.570 ,6,1,0.,12.0,0.,12.0,0.,12.0,0.,12.0
1979-08-01 18:28:59.570 ,6,1,0.,12.0,0.,12.0,0.,12.0,0.,12.0
1979-08-01 18:29:11.570 ,6,0,0.,12.0,0.,12.0,0.,12.0,0.,12.0
1979-08-01 18:29:23.570 ,6,0,0.,12.0,0.,12.0,0.,12.0,0.,12.0
1979-08-01 18:29:35.570 ,7,1,0.,12.0,0.,12.0,0.,12.0,0.,12.0
1979-08-01 18:29:47.570 ,7,1,0.,12.0,0.,12.0,0.,12.0,0.,12.0
1979-08-01 18:29:59.570 ,7,0,0.,12.0,0.,12.0,0.,12.0,0.,12.0
1979-08-01 18:30:11.570 ,7,0,0.,12.0,0.,12.0,0.,12.0,0.,12.0
1979-08-01 18:30:23.570 ,7,1,0.,12.0,0.,12.0,0.,12.0,0.,12.0
1979-08-01 18:30:35.570 ,7,1,0.,12.0,0.,12.0,0.,12.0,0.,12.0
1979-08-01 18:30:47.570 ,7,0,0.,12.0,0.,12.0,0.,12.0,0.,12.0
1979-08-01 18:30:59.570 ,7,0,0.,12.0,0.,12.0,0.,12.0,0.,12.0
1979-08-01 18:31:11.570 ,6,1,0.,12.0,0.,12.0,0.,12.0,0.,12.0
1979-08-01 18:31:23.570 ,6,1,0.,12.0,0.,12.0,0.,12.0,0.,12.0
1979-08-01 18:31:35.570 ,6,0,0.,12.0,0.,12.0,0.,12.0,0.,12.0
1979-08-01 18:31:47.570 ,6,0,0.,12.0,0.,12.0,0.,12.0,0.,12.0
1979-08-01 18:31:59.570 ,5,1,0.,12.0,0.,12.0,0.,12.0,0.,12.0
1979-08-01 18:32:11.570 ,5,1,0.,12.0,0.,12.0,0.,12.0,0.,12.0
1979-08-01 18:32:23.570 ,5,0,0.,12.0,0.,12.0,0.,12.0,0.,12.0
1979-08-01 18:32:35.570 ,5,0,0.,12.0,0.,12.0,0.,12.0,0.,12.0
1979-08-01 18:32:47.570 ,4,1,0.,12.0,0.,12.0,0.,12.0,0.,12.0
1979-08-01 18:32:59.570 ,4,1,0.,12.0,0.,12.0,0.,12.0,0.,12.0
1979-08-01 18:33:11.570 ,4,0,0.,12.0,0.,12.0,0.,12.0,0.,12.0
1979-08-01 18:33:23.570 ,4,0,0.,12.0,0.,12.0,0.,12.0,0.,12.0
1979-08-01 18:33:35.570 ,3,1,0.,12.0,0.,12.0,0.,12.0,0.,12.0
1979-08-01 18:33:47.570 ,3,1,0.,12.0,0.,12.0,0.,12.0,0.,12.0
1979-08-01 18:33:59.570 ,3,0,0.,12.0,0.,12.0,0.,12.0,0.,12.0
1979-08-01 18:34:11.570 ,3,0,0.,12.0,0.,12.0,0.,12.0,0.,12.0
1979-08-01 18:34:23.570 ,2,1,0.,12.0,0.,12.0,0.,12.0,0.,12.0
1979-08-01 18:34:35.570 ,2,1,0.,12.0,0.,12.0,0.,12.0,0.,12.0
1979-08-01 18:34:47.570 ,2,0,0.,12.0,0.,12.0,0.,12.0,0.,12.0
1979-08-01 18:34:59.570 ,2,0,0.,12.0,0.,12.0,0.,12.0,0.,12.0
1979-08-01 18:35:11.570 ,1,1,0.,12.0,0.,12.0,0.,12.0,0.,12.0
1979-08-01 18:35:23.570 ,1,1,0.,12.0,0.,12.0,0.,12.0,0.,12.0
1979-08-01 18:35:35.570 ,1,0,0.,12.0,0.,12.0,0.,12.0,0.,12.0
1979-08-01 18:35:47.570 ,1,0,0.,12.0,0.,12.0,0.,12.0,0.,12.0
1979-08-01 18:36:47.570 ,0,0,0.,12.0,0.,12.0,0.,12.0,0.,12.0
1979-08-01 18:36:59.570 ,0,0,0.,12.0,0.,12.0,0.,12.0,0.,12.0
1979-08-01 18:37:11.570 ,0,0,0.,12.0,0.,12.0,0.,12.0,0.,12.0
1979-08-01 18:37:23.570 ,0,0,0.,12.0,0.,12.0,0.,12.0,0.,12.0
1979-08-01 18:37:35.570 ,1,1,0.,12.0,0.,12.0,0.,12.0,0.,12.0
1979-08-01 18:37:47.570 ,1,1,0.,12.0,0.,12.0,0.,12.0,0.,12.0
1979-08-01 18:37:59.570 ,1,0,0.,12.0,0.,12.0,0.,12.0,0.,12.0
1979-08-01 18:38:11.570 ,1,0,0.,12.0,0.,12.0,0.,12.0,0.,12.0
1979-08-01 18:38:23.570 ,2,1,0.,12.0,0.,12.0,0.,12.0,0.,12.0
1979-08-01 18:38:35.570 ,2,1,0.,12.0,0.,12.0,0.,12.0,0.,12.0
1979-08-01 18:38:47.570 ,2,0,0.,12.0,0.,12.0,0.,12.0,0.,12.0
1979-08-01 18:38:59.570 ,2,0,0.,12.0,0.,12.0,0.,12.0,0.,12.0
1979-08-01 18:39:11.570 ,3,1,0.,12.0,0.,12.0,0.,12.0,0.,12.0
1979-08-01 18:39:23.570 ,3,1,0.,12.0,0.,12.0,0.,12.0,0.,12.0
1979-08-01 18:39:35.570 ,3,0,0.,12.0,0.,12.0,0.,12.0,0.,12.0
1979-08-01 18:39:47.570 ,3,0,0.,12.0,0.,12.0,0.,12.0,0.,12.0
1979-08-01 18:39:59.570 ,4,1,0.,12.0,0.,12.0,0.,12.0,0.,12.0
1979-08-01 18:40:11.570 ,4,1,0.,12.0,0.,12.0,0.,12.0,0.,12.0
1979-08-01 18:40:23.570 ,4,0,0.,12.0,0.,12.0,0.,12.0,0.,12.0
1979-08-01 18:40:35.570 ,4,0,0.,12.0,0.,12.0,0.,12.0,0.,12.0
1979-08-01 18:40:47.570 ,5,1,0.,12.0,0.,12.0,0.,12.0,0.,12.0
1979-08-01 18:40:59.570 ,5,1,0.,12.0,0.,12.0,0.,12.0,0.,12.0
1979-08-01 18:41:11.570 ,5,0,0.,12.0,0.,12.0,0.,12.0,0.,12.0
1979-08-01 18:41:23.570 ,5,0,0.,12.0,0.,12.0,0.,12.0,0.,12.0
1979-08-01 18:41:35.570 ,6,1,0.,12.0,0.,12.0,0.,12.0,0.,12.0
1979-08-01 18:41:47.570 ,6,1,1.,12.0,0.,12.0,0.,12.0,0.,12.0
1979-08-01 18:41:59.570 ,6,0,0.,12.0,0.,12.0,0.,12.0,0.,12.0
1979-08-01 18:42:11.570 ,6,0,0.,12.0,0.,12.0,0.,12.0,0.,12.0
1979-08-01 18:42:23.570 ,7,0,0.,12.0,0.,12.0,0.,12.0,0.,12.0
1979-08-01 18:42:35.570 ,7,0,0.,12.0,0.,12.0,0.,12.0,0.,12.0
1979-08-01 18:42:47.570 ,7,0,0.,12.0,0.,12.0,0.,12.0,0.,12.0
1979-08-01 18:42:59.570 ,7,0,0.,12.0,0.,12.0,0.,12.0,0.,12.0
1979-08-01 18:43:11.570 ,4,1,0.,12.0,0.,12.0,0.,12.0,0.,12.0
1979-08-01 18:43:23.570 ,4,1,0.,12.0,0.,12.0,0.,12.0,0.,12.0
1979-08-01 18:43:35.570 ,0,1,0.,12.0,0.,12.0,0.,12.0,0.,12.0
1979-08-01 18:43:47.570 ,0,1,0.,12.0,0.,12.0,0.,12.0,0.,12.0
1979-08-01 18:43:59.570 ,3,1,0.,12.0,0.,12.0,0.,12.0,0.,12.0
1979-08-01 18:44:11.570 ,3,1,0.,12.0,0.,12.0,0.,12.0,1.,12.0
1979-08-01 18:44:23.570 ,7,1,0.,12.0,0.,12.0,0.,12.0,0.,12.0
1979-08-01 18:44:35.570 ,7,1,0.,12.0,0.,12.0,0.,12.0,0.,12.0
1979-08-01 18:45:35.570 ,0,0,0.,12.0,0.,12.0,0.,12.0,0.,12.0
1979-08-01 18:45:47.570 ,0,0,0.,12.0,0.,12.0,0.,12.0,0.,12.0
1979-08-01 18:45:59.570 ,7,1,0.,12.0,0.,12.0,0.,12.0,0.,12.0
1979-08-01 18:46:11.570 ,7,1,0.,12.0,0.,12.0,0.,12.0,0.,12.0
1979-08-01 18:46:23.570 ,4,1,0.,12.0,0.,12.0,0.,12.0,0.,12.0
1979-08-01 18:46:35.570 ,4,1,0.,12.0,0.,12.0,0.,12.0,0.,12.0
1979-08-01 18:46:47.570 ,0,1,0.,12.0,0.,12.0,0.,12.0,0.,12.0
1979-08-01 18:46:59.570 ,0,1,0.,12.0,0.,12.0,0.,12.0,0.,12.0
1979-08-01 18:47:11.570 ,3,1,0.,12.0,0.,12.0,0.,12.0,0.,12.0
1979-08-01 18:47:23.570 ,3,1,1.,12.0,0.,12.0,0.,12.0,0.,12.0
1979-08-01 18:47:35.570 ,7,1,0.,12.0,0.,12.0,0.,12.0,0.,12.0
1979-08-01 18:47:47.570 ,7,1,0.,12.0,0.,12.0,0.,12.0,0.,12.0
1979-08-01 18:47:59.570 ,4,1,0.,12.0,0.,12.0,0.,12.0,0.,12.0
1979-08-01 18:48:11.570 ,4,1,0.,12.0,0.,12.0,0.,12.0,0.,12.0
1979-08-01 18:48:23.570 ,0,1,0.,12.0,0.,12.0,0.,12.0,0.,12.0
1979-08-01 18:48:35.570 ,0,1,0.,12.0,0.,12.0,0.,12.0,0.,12.0
1979-08-01 18:48:47.570 ,3,1,0.,12.0,0.,12.0,0.,12.0,0.,12.0
1979-08-01 18:48:59.570 ,3,1,0.,12.0,0.,12.0,0.,12.0,0.,12.0
1979-08-01 18:49:11.570 ,7,1,0.,12.0,0.,12.0,0.,12.0,1.,12.0
1979-08-01 18:49:23.570 ,7,1,0.,12.0,0.,12.0,0.,12.0,0.,12.0
1979-08-01 18:50:23.570 ,0,0,0.,12.0,0.,12.0,0.,12.0,0.,12.0
1979-08-01 18:50:35.570 ,0,0,0.,12.0,0.,12.0,0.,12.0,0.,12.0
1979-08-01 18:50:47.570 ,7,1,0.,12.0,0.,12.0,0.,12.0,0.,12.0
1979-08-01 18:50:59.570 ,7,1,0.,12.0,0.,12.0,0.,12.0,0.,12.0
1979-08-01 18:51:11.570 ,4,1,0.,12.0,0.,12.0,0.,12.0,0.,12.0
1979-08-01 18:51:23.570 ,4,1,0.,12.0,0.,12.0,0.,12.0,0.,12.0
1979-08-01 18:51:35.570 ,0,1,0.,12.0,0.,12.0,0.,12.0,0.,12.0
1979-08-01 18:51:47.570 ,0,1,0.,12.0,0.,12.0,0.,12.0,0.,12.0
1979-08-01 18:51:59.570 ,3,1,0.,12.0,0.,12.0,0.,12.0,0.,12.0
1979-08-01 18:52:11.570 ,3,1,0.,12.0,0.,12.0,0.,12.0,0.,12.0
1979-08-01 18:52:23.570 ,7,1,0.,12.0,0.,12.0,0.,12.0,0.,12.0
1979-08-01 18:52:35.570 ,7,1,0.,12.0,0.,12.0,0.,12.0,0.,12.0
1979-08-01 18:52:47.570 ,4,1,0.,12.0,0.,12.0,0.,12.0,0.,12.0
1979-08-01 18:52:59.570 ,4,1,0.,12.0,0.,12.0,0.,12.0,0.,12.0
1979-08-01 18:53:11.570 ,0,1,0.,12.0,0.,12.0,0.,12.0,0.,12.0
1979-08-01 18:53:23.570 ,0,1,0.,12.0,0.,12.0,0.,12.0,0.,12.0
1979-08-01 18:53:35.570 ,0,0,0.,12.0,0.,12.0,0.,12.0,0.,12.0
1979-08-01 18:53:47.570 ,0,0,0.,12.0,0.,12.0,0.,12.0,0.,12.0
1979-08-01 18:53:59.570 ,0,0,0.,12.0,0.,12.0,0.,12.0,0.,12.0
1979-08-01 18:54:11.570 ,0,0,0.,12.0,0.,12.0,0.,12.0,0.,12.0
1979-08-01 18:54:23.570 ,5,1,0.,12.0,0.,12.0,0.,12.0,0.,12.0
1979-08-01 18:54:35.570 ,5,1,0.,12.0,0.,12.0,0.,12.0,0.,12.0
1979-08-01 18:54:47.570 ,5,0,0.,12.0,0.,12.0,0.,12.0,0.,12.0
1979-08-01 18:54:59.570 ,5,0,0.,12.0,0.,12.0,0.,12.0,0.,12.0
1979-08-01 18:55:11.570 ,4,1,0.,12.0,0.,12.0,0.,12.0,0.,12.0
1979-08-01 18:55:23.570 ,4,1,0.,12.0,0.,12.0,0.,12.0,0.,12.0
1979-08-01 18:55:35.570 ,4,0,0.,12.0,0.,12.0,0.,12.0,0.,12.0
1979-08-01 18:55:47.570 ,4,0,0.,12.0,0.,12.0,0.,12.0,0.,12.0
1979-08-01 18:55:59.570 ,3,1,0.,12.0,0.,12.0,0.,12.0,0.,12.0
1979-08-01 18:56:11.570 ,3,1,0.,12.0,0.,12.0,0.,12.0,0.,12.0
1979-08-01 18:56:23.570 ,3,0,0.,12.0,0.,12.0,0.,12.0,0.,12.0
1979-08-01 18:56:35.570 ,3,0,0.,12.0,0.,12.0,0.,12.0,0.,12.0
1979-08-01 18:56:47.570 ,2,1,0.,12.0,0.,12.0,0.,12.0,0.,12.0
1979-08-01 18:56:59.570 ,2,1,0.,12.0,0.,12.0,0.,12.0,0.,12.0
1979-08-01 18:57:11.570 ,2,0,0.,12.0,0.,12.0,0.,12.0,0.,12.0
1979-08-01 18:57:23.570 ,2,0,0.,12.0,0.,12.0,0.,12.0,0.,12.0
1979-08-01 18:57:35.570 ,1,1,0.,12.0,0.,12.0,0.,12.0,0.,12.0
1979-08-01 18:57:47.570 ,1,1,0.,12.0,0.,12.0,0.,12.0,0.,12.0
1979-08-01 18:57:59.570 ,1,0,0.,12.0,0.,12.0,0.,12.0,0.,12.0
1979-08-01 18:58:11.570 ,1,0,0.,12.0,0.,12.0,0.,12.0,0.,12.0
1979-08-01 18:58:23.570 ,0,1,0.,12.0,0.,12.0,0.,12.0,0.,12.0
1979-08-01 18:58:35.570 ,0,1,0.,12.0,0.,12.0,0.,12.0,0.,12.0
1979-08-01 18:58:47.570 ,0,0,0.,12.0,0.,12.0,0.,12.0,0.,12.0
1979-08-01 18:58:59.570 ,0,0,0.,12.0,0.,12.0,0.,12.0,0.,12.0
1979-08-01 18:59:11.570 ,0,1,0.,12.0,0.,12.0,0.,12.0,0.,12.0
1979-08-01 18:59:23.570 ,0,1,0.,12.0,0.,12.0,0.,12.0,0.,12.0
1979-08-01 18:59:35.570 ,0,0,0.,12.0,0.,12.0,0.,12.0,0.,12.0
1979-08-01 18:59:47.570 ,0,0,0.,12.0,0.,12.0,0.,12.0,0.,12.0
1979-08-01 18:59:59.570 ,1,1,0.,12.0,0.,12.0,0.,12.0,0.,12.0
1979-08-01 19:00:11.570 ,1,1,0.,12.0,0.,12.0,0.,12.0,0.,12.0
1979-08-01 19:00:23.570 ,1,0,0.,12.0,0.,12.0,0.,12.0,0.,12.0
1979-08-01 19:00:35.570 ,1,0,0.,12.0,0.,12.0,0.,12.0,0.,12.0
1979-08-01 19:00:47.570 ,2,1,0.,12.0,0.,12.0,0.,12.0,0.,12.0
1979-08-01 19:00:59.570 ,2,1,0.,12.0,0.,12.0,0.,12.0,0.,12.0
1979-08-01 19:01:11.570 ,2,0,0.,12.0,0.,12.0,0.,12.0,0.,12.0
1979-08-01 19:01:23.570 ,2,0,0.,12.0,0.,12.0,0.,12.0,0.,12.0
1979-08-01 19:01:35.570 ,3,1,0.,12.0,0.,12.0,0.,12.0,0.,12.0
1979-08-01 19:01:47.570 ,3,1,0.,12.0,0.,12.0,0.,12.0,0.,12.0
1979-08-01 19:01:59.570 ,3,0,0.,12.0,0.,12.0,0.,12.0,0.,12.0
1979-08-01 19:02:11.570 ,3,0,0.,12.0,0.,12.0,0.,12.0,0.,12.0
1979-08-01 19:03:11.570 ,0,0,0.,12.0,0.,12.0,0.,12.0,0.,12.0
1979-08-01 19:03:23.570 ,0,0,0.,12.0,0.,12.0,0.,12.0,0.,12.0
1979-08-01 19:03:35.570 ,0,0,0.,12.0,0.,12.0,0.,12.0,0.,12.0
1979-08-01 19:03:47.570 ,0,0,0.,12.0,0.,12.0,0.,12.0,0.,12.0
1979-08-01 19:03:59.570 ,6,1,0.,12.0,0.,12.0,0.,12.0,0.,12.0
1979-08-01 19:04:11.570 ,6,1,0.,12.0,0.,12.0,0.,12.0,0.,12.0
1979-08-01 19:04:23.570 ,6,0,0.,12.0,0.,12.0,0.,12.0,0.,12.0
1979-08-01 19:04:35.570 ,6,0,0.,12.0,0.,12.0,0.,12.0,0.,12.0
1979-08-01 19:04:47.570 ,7,1,0.,12.0,0.,12.0,0.,12.0,0.,12.0
1979-08-01 19:04:59.570 ,7,1,0.,12.0,0.,12.0,0.,12.0,0.,12.0
1979-08-01 19:05:11.570 ,7,0,0.,12.0,0.,12.0,0.,12.0,0.,12.0
1979-08-01 19:05:23.570 ,7,0,0.,12.0,0.,12.0,0.,12.0,0.,12.0
1979-08-01 19:05:35.570 ,7,1,0.,12.0,0.,12.0,0.,12.0,0.,12.0
1979-08-01 19:05:47.570 ,7,1,0.,12.0,0.,12.0,0.,12.0,0.,12.0
1979-08-01 19:05:59.570 ,7,0,0.,12.0,0.,12.0,0.,12.0,0.,12.0
1979-08-01 19:06:11.570 ,7,0,0.,12.0,0.,12.0,0.,12.0,0.,12.0
1979-08-01 19:06:23.570 ,6,1,0.,12.0,0.,12.0,0.,12.0,0.,12.0
1979-08-01 19:06:35.570 ,6,1,0.,12.0,0.,12.0,0.,12.0,0.,12.0
1979-08-01 19:06:47.570 ,6,0,0.,12.0,0.,12.0,0.,12.0,0.,12.0
1979-08-01 19:06:59.570 ,6,0,0.,12.0,0.,12.0,0.,12.0,0.,12.0
1979-08-01 19:07:11.570 ,5,1,0.,12.0,0.,12.0,0.,12.0,0.,12.0
1979-08-01 19:07:23.570 ,5,1,0.,12.0,0.,12.0,0.,12.0,0.,12.0
1979-08-01 19:07:35.570 ,5,0,0.,12.0,0.,12.0,0.,12.0,0.,12.0
1979-08-01 19:07:47.570 ,5,0,0.,12.0,0.,12.0,0.,12.0,0.,12.0
1979-08-01 19:07:59.570 ,4,1,0.,12.0,0.,12.0,0.,12.0,0.,12.0
1979-08-01 19:08:11.570 ,4,1,0.,12.0,0.,12.0,0.,12.0,0.,12.0
1979-08-01 19:08:23.570 ,4,0,0.,12.0,0.,12.0,0.,12.0,0.,12.0
1979-08-01 19:08:35.570 ,4,0,0.,12.0,0.,12.0,0.,12.0,0.,12.0
1979-08-01 19:08:47.570 ,3,1,0.,12.0,0.,12.0,0.,12.0,0.,12.0
1979-08-01 19:08:59.570 ,3,1,0.,12.0,0.,12.0,0.,12.0,0.,12.0
1979-08-01 19:09:11.570 ,3,0,0.,12.0,0.,12.0,0.,12.0,0.,12.0
1979-08-01 19:09:23.570 ,3,0,0.,12.0,0.,12.0,0.,12.0,0.,12.0
1979-08-01 19:09:35.570 ,2,1,0.,12.0,0.,12.0,0.,12.0,0.,12.0
1979-08-01 19:09:47.570 ,2,1,0.,12.0,0.,12.0,0.,12.0,0.,12.0
1979-08-01 19:09:59.570 ,2,0,0.,12.0,0.,12.0,0.,12.0,0.,12.0
1979-08-01 19:10:11.570 ,2,0,0.,12.0,0.,12.0,0.,12.0,0.,12.0
1979-08-01 19:10:23.570 ,1,1,0.,12.0,0.,12.0,0.,12.0,0.,12.0
1979-08-01 19:10:35.570 ,1,1,0.,12.0,0.,12.0,0.,12.0,0.,12.0
1979-08-01 19:10:47.570 ,1,0,0.,12.0,0.,12.0,0.,12.0,0.,12.0
1979-08-01 19:10:59.570 ,1,0,0.,12.0,0.,12.0,0.,12.0,0.,12.0
1979-08-01 19:11:11.570 ,0,1,0.,12.0,0.,12.0,0.,12.0,0.,12.0
1979-08-01 19:11:23.570 ,0,1,0.,12.0,0.,12.0,0.,12.0,0.,12.0
1979-08-01 19:11:35.570 ,0,0,0.,12.0,0.,12.0,0.,12.0,0.,12.0
1979-08-01 19:11:47.570 ,0,0,0.,12.0,0.,12.0,0.,12.0,0.,12.0
1979-08-01 19:11:59.570 ,0,1,0.,12.0,0.,12.0,0.,12.0,0.,12.0
1979-08-01 19:12:11.570 ,0,1,0.,12.0,0.,12.0,0.,12.0,0.,12.0
1979-08-01 19:12:23.570 ,0,0,0.,12.0,0.,12.0,0.,12.0,0.,12.0
1979-08-01 19:12:35.570 ,0,0,0.,12.0,0.,12.0,0.,12.0,0.,12.0
1979-08-01 19:12:47.570 ,1,1,0.,12.0,0.,12.0,0.,12.0,0.,12.0
1979-08-01 19:12:59.570 ,1,1,0.,12.0,0.,12.0,0.,12.0,0.,12.0
1979-08-01 19:13:11.570 ,1,0,0.,12.0,0.,12.0,0.,12.0,0.,12.0
1979-08-01 19:13:23.570 ,1,0,0.,12.0,0.,12.0,0.,12.0,0.,12.0
1979-08-01 19:13:35.570 ,2,1,0.,12.0,0.,12.0,0.,12.0,0.,12.0
1979-08-01 19:13:47.570 ,2,1,0.,12.0,0.,12.0,0.,12.0,0.,12.0
1979-08-01 19:13:59.570 ,2,0,0.,12.0,0.,12.0,0.,12.0,0.,12.0
1979-08-01 19:14:11.570 ,2,0,0.,12.0,0.,12.0,0.,12.0,0.,12.0
1979-08-01 19:14:23.570 ,3,1,0.,12.0,0.,12.0,0.,12.0,0.,12.0
1979-08-01 19:14:35.570 ,3,1,0.,12.0,0.,12.0,0.,12.0,0.,12.0
1979-08-01 19:14:47.570 ,3,0,0.,12.0,0.,12.0,0.,12.0,0.,12.0
1979-08-01 19:14:59.570 ,3,0,0.,12.0,0.,12.0,0.,12.0,0.,12.0
1979-08-01 19:15:11.570 ,4,1,0.,12.0,0.,12.0,0.,12.0,0.,12.0
1979-08-01 19:15:23.570 ,4,1,0.,12.0,0.,12.0,0.,12.0,0.,12.0
1979-08-01 19:15:35.570 ,4,0,0.,12.0,0.,12.0,0.,12.0,0.,12.0
1979-08-01 19:15:47.570 ,4,0,0.,12.0,0.,12.0,0.,12.0,0.,12.0
1979-08-01 19:16:47.570 ,0,0,0.,12.0,0.,12.0,0.,12.0,0.,12.0
1979-08-01 19:16:59.570 ,0,0,0.,12.0,0.,12.0,0.,12.0,0.,12.0
1979-08-01 19:17:11.570 ,0,0,0.,12.0,0.,12.0,0.,12.0,0.,12.0
1979-08-01 19:17:23.570 ,0,0,0.,12.0,0.,12.0,0.,12.0,0.,12.0
1979-08-01 19:17:35.570 ,7,1,0.,12.0,0.,12.0,0.,12.0,0.,12.0
1979-08-01 19:17:47.570 ,7,1,0.,12.0,0.,12.0,0.,12.0,0.,12.0
1979-08-01 19:17:59.570 ,7,0,0.,12.0,0.,12.0,0.,12.0,0.,12.0
1979-08-01 19:18:11.570 ,7,0,0.,12.0,0.,12.0,0.,12.0,0.,12.0
1979-08-01 19:18:23.570 ,7,1,0.,12.0,0.,12.0,0.,12.0,0.,12.0
1979-08-01 19:18:35.570 ,7,1,0.,12.0,0.,12.0,0.,12.0,0.,12.0
1979-08-01 19:18:47.570 ,7,0,0.,12.0,0.,12.0,0.,12.0,0.,12.0
1979-08-01 19:18:59.570 ,7,0,0.,12.0,0.,12.0,0.,12.0,0.,12.0
1979-08-01 19:19:11.570 ,6,1,0.,12.0,0.,12.0,0.,12.0,0.,12.0
1979-08-01 19:19:23.570 ,6,1,0.,12.0,0.,12.0,0.,12.0,0.,12.0
1979-08-01 19:19:35.570 ,6,0,0.,12.0,0.,12.0,0.,12.0,0.,12.0
1979-08-01 19:19:47.570 ,6,0,0.,12.0,0.,12.0,0.,12.0,0.,12.0
1979-08-01 19:19:59.570 ,5,1,0.,12.0,0.,12.0,0.,12.0,0.,12.0
1979-08-01 19:20:11.570 ,5,1,0.,12.0,0.,12.0,0.,12.0,0.,12.0
1979-08-01 19:20:23.570 ,5,0,0.,12.0,0.,12.0,0.,12.0,1.,12.0
1979-08-01 19:20:35.570 ,5,0,0.,12.0,0.,12.0,0.,12.0,0.,12.0
1979-08-01 19:20:47.570 ,4,1,0.,12.0,0.,12.0,0.,12.0,0.,12.0
1979-08-01 19:20:59.570 ,4,1,0.,12.0,0.,12.0,0.,12.0,0.,12.0
1979-08-01 19:21:11.570 ,4,0,0.,12.0,0.,12.0,0.,12.0,0.,12.0
1979-08-01 19:21:23.570 ,4,0,0.,12.0,0.,12.0,0.,12.0,0.,12.0
1979-08-01 19:22:23.570 ,0,0,0.,12.0,0.,12.0,0.,12.0,0.,12.0
1979-08-01 19:22:35.570 ,0,0,0.,12.0,0.,12.0,0.,12.0,0.,12.0
1979-08-01 19:22:47.570 ,0,0,0.,12.0,0.,12.0,0.,12.0,0.,12.0
1979-08-01 19:22:59.570 ,0,0,0.,12.0,0.,12.0,0.,12.0,0.,12.0
1979-08-01 19:23:17.570 ,1,1,,0,,0,,0,,0
1979-08-01 19:23:29.570 ,1,1,0.,12.0,0.,12.0,0.,12.0,0.,12.0
1979-08-01 19:23:35.570 ,1,0,,0,,0,,0,,0
1979-08-01 19:23:47.570 ,1,0,0.,12.0,0.,12.0,0.,12.0,0.,12.0
1979-08-01 19:23:59.570 ,0,1,0.,12.0,0.,12.0,0.,12.0,0.,12.0
1979-08-01 19:24:11.570 ,0,1,0.,12.0,0.,12.0,0.,12.0,0.,12.0
1979-08-01 19:24:23.570 ,0,0,0.,12.0,0.,12.0,0.,12.0,0.,12.0
1979-08-01 19:24:35.570 ,0,0,0.,12.0,0.,12.0,0.,12.0,0.,12.0
1979-08-01 19:24:47.570 ,0,1,0.,12.0,0.,12.0,0.,12.0,0.,12.0
1979-08-01 19:24:59.570 ,0,1,0.,12.0,0.,12.0,0.,12.0,0.,12.0
1979-08-01 19:25:11.570 ,0,0,0.,12.0,0.,12.0,0.,12.0,0.,12.0
1979-08-01 19:25:23.570 ,0,0,0.,12.0,0.,12.0,0.,12.0,0.,12.0
1979-08-01 19:25:35.570 ,1,1,0.,12.0,0.,12.0,0.,12.0,0.,12.0
1979-08-01 19:25:47.570 ,1,1,0.,12.0,0.,12.0,0.,12.0,0.,12.0
1979-08-01 19:25:59.570 ,1,0,0.,12.0,0.,12.0,0.,12.0,0.,12.0
1979-08-01 19:26:11.570 ,1,0,0.,12.0,0.,12.0,0.,12.0,0.,12.0